DateTime,Index
1990050900,0.0
1990050906,0.0
1990050912,0.0
1990050918,0.0
1990051000,0.0
1990051006,0.0
1990051012,0.0
1990051018,0.0
1990051100,0.0
1990051106,0.0
1990051112,0.0
1990051118,0.0
1990051200,0.0
1990051206,0.0
1990051212,0.0
1990051218,0.0
1990051300,0.0
1990051306,0.0
1990051312,0.0
1990051318,0.0
1990051400,0.0
1990051406,0.0
1990051412,0.0
1990051418,0.0
1990051500,0.0
1990051506,0.0
1990051512,0.0
1990051518,1225.0
1990051600,2025.0
1990051606,2500.0
1990051612,3025.0
1990051618,3600.0
1990051700,4225.0
1990051706,6400.0
1990051712,8100.0
1990051718,8100.0
1990051800,8100.0
1990051806,7225.0
1990051812,5625.0
1990051818,3600.0
1990051900,2025.0
1990051906,0.0
1990051912,0.0
1990051918,0.0
1990052000,0.0
1990052006,0.0
